Location: Bari
(41.1330°N, 16.8500°E)
Time: 03:56:13
(UTC+02:00)

ISS - Pass Details

Date: 16 May 2021
Orbit: 417 x 422 km, 51.6° (Epoch: 14 June)

Event Time Altitude Azimuth Distance (km) Brightness Sun altitude
Rises 02:53:46 0° 309° (NW) 2,373 0.2 -23.2°
Reaches altitude 10° 02:55:59 10° 319° (NW) 1,507 -0.8 -22.9°
Maximum altitude 02:59:07 35° 27° (NNE) 703 -2.1 -22.6°
Drops below altitude 10° 03:02:15 10° 95° (E) 1,503 -0.6 -22.3°
Sets 03:04:28 0° 105° (ESE) 2,366 0.3 -22.1°
